GFSFLT2_250_rhum_045.txt.gz
RH
92 100 98 95 100 100 100 100 100 98 100 100 100 100 85 62 42 30 27 30 35 45 50 50 59 61 46 36 30 35 38 40
100 100 100 100 100 100 100 100 100 100 88 100 100 90 76 51 38 33 22 19 26 42 43 40 63 85 85 79 68 80 85 87
100 96 100 100 100 91 100 100 100 100 100 83 100 97 81 46 39 22 20 24 28 30 44 43 64 87 83 86 99 100 100 98
100 100 100 100 99 100 100 99 100 100 100 98 84 76 58 46 24 22 29 38 33 37 56 63 63 77 87 92 100 100 99 97
100 100 71 98 100 100 100 100 100 100 100 100 78 44 55 30 23 22 45 46 39 42 53 63 70 80 80 74 98 100 71 66
100 100 100 100 100 100 100 100 100 100 100 100 83 66 55 37 29 40 50 48 41 44 76 84 98 80 71 65 71 93 99 71
100 100 100 100 100 100 100 100 100 100 98 92 88 77 54 42 57 46 54 54 51 54 59 61 50 72 95 78 87 100 100 100
100 100 100 100 100 100 100 100 100 89 100 82 81 67 72 63 74 80 55 57 58 66 99 93 89 91 100 96 100 97 98 100
100 100 100 100 100 100 100 100 100 100 100 100 99 79 100 76 67 70 74 69 75 76 80 77 76 89 94 92 88 78 83 74
100 100 100 100 100 98 98 100 100 100 100 100 100 88 64 64 77 83 79 78 81 84 100 97 89 90 98 90 74 56 51 81
100 100 100 100 100 100 100 96 100 93 100 94 94 80 74 81 77 84 88 93 100 95 100 100 100 94 87 63 54 61 91 100
100 100 100 100 100 100 100 100 100 89 88 90 70 63 78 90 89 98 100 90 85 72 100 100 80 81 93 100 100 100 100 100
100 100 100 100 100 100 100 100 100 96 81 77 67 82 94 98 97 100 91 71 85 72 67 61 72 100 100 100 100 100 100 100
99 100 100 100 100 100 100 100 98 92 91 78 75 97 97 99 100 76 69 80 100 100 100 100 100 100 100 100 97 88 85 74
100 100 100 100 100 100 100 100 94 94 83 100 100 100 100 96 81 80 77 94 87 84 90 88 99 83 88 88 70 62 60 56
100 96 100 100 100 100 100 100 100 100 100 100 93 90 87 77 90 88 100 81 96 100 98 89 96 97 82 58 49 46 50 64
100 100 100 100 100 100 100 100 100 100 95 91 87 79 71 83 87 100 97 82 97 99 84 76 73 59 52 45 41 45 52 54
85 89 100 100 100 100 100 100 97 97 87 80 74 70 68 76 89 82 79 81 81 76 63 61 56 50 39 41 47 47 39 40
92 100 96 80 80 79 78 80 86 82 80 87 76 85 85 78 67 73 79 77 63 48 51 48 49 38 37 50 63 47 58 80
94 100 100 80 65 73 66 64 71 70 87 76 58 49 51 97 100 75 72 87 97 94 66 98 90 52 59 43 51 65 78 77

GFSFLT2_250_rhum_051.txt.gz
RH
100 86 62 74 77 66 61 43 45 54 94 100 100 100 100 100 100 100 100 79 56 43 34 26 20 21 19 18 17 16 17 23
96 100 100 100 100 73 61 49 73 100 98 100 100 100 100 100 100 100 98 69 51 36 30 22 20 20 20 19 21 25 25 25
76 100 100 100 100 95 70 30 96 100 100 100 100 100 100 100 100 100 83 58 45 34 27 22 20 19 24 29 30 31 32 34
100 100 100 100 99 100 83 100 100 100 100 100 100 100 97 100 100 86 69 54 34 27 27 23 22 23 30 35 35 37 35 38
100 100 100 100 100 98 100 100 100 100 95 100 99 100 83 78 62 83 75 53 35 26 25 24 23 22 28 33 42 50 48 46
87 100 100 100 100 100 100 91 100 100 98 99 98 91 74 90 100 99 67 46 43 35 35 32 27 29 31 50 54 61 68 66
100 100 100 100 100 100 100 100 100 100 88 100 100 99 90 91 86 84 66 56 55 40 35 37 34 47 48 58 67 65 65 68
100 100 100 100 100 98 100 100 100 100 100 100 100 98 67 76 98 87 72 70 49 40 38 45 65 69 49 58 69 70 64 63
100 100 100 100 100 100 100 100 100 100 100 100 100 100 100 83 74 83 81 74 60 59 63 53 63 64 72 72 76 73 66 66
100 100 100 100 100 100 100 100 100 96 96 94 92 100 100 100 100 100 100 79 75 96 96 66 46 65 73 70 67 52 49 51
100 100 100 100 100 100 100 100 100 100 100 100 100 100 100 100 99 88 85 88 100 91 64 64 56 64 72 58 60 54 54 48
100 100 100 100 100 100 100 100 100 100 100 100 96 100 98 83 87 98 100 95 75 51 61 90 65 67 66 83 66 59 63 62
100 100 100 100 100 100 100 100 100 100 99 91 86 83 77 100 93 80 74 100 99 96 71 76 78 86 79 87 76 72 63 69
100 100 100 100 100 100 100 100 100 100 100 100 100 100 97 86 97 92 98 78 80 80 64 84 91 92 80 70 67 64 99 100
99 100 100 100 100 100 100 100 100 100 100 100 100 99 100 95 82 93 100 92 83 91 96 83 73 100 82 86 91 94 95 92
70 90 100 100 100 100 100 100 100 94 96 100 100 100 100 100 100 100 96 98 100 93 100 100 99 96 98 84 89 80 72 54
40 61 78 100 100 100 100 100 100 100 100 96 99 93 97 97 100 100 100 100 100 100 100 100 100 100 100 86 68 63 52 63
38 36 59 69 100 100 100 100 100 100 100 100 100 100 100 100 100 100 100 100 100 100 100 98 91 86 85 75 55 54 49 60
24 36 35 51 72 97 100 100 100 100 100 100 100 100 100 100 100 100 100 100 100 99 99 94 88 84 74 46 34 39 46 41
30 25 22 36 37 49 72 100 100 100 100 100 100 100 100 100 100 100 100 100 100 97 98 94 89 76 64 51 41 32 26 26

GFSFLT2_250_rhum_057.txt.gz
RH
75 100 79 67 51 75 100 86 100 100 100 96 82 60 63 23 44 65 100 100 100 100 100 100 100 90 69 48 31 21 20 20
99 100 100 70 88 95 100 100 99 90 100 100 100 73 100 21 21 59 62 86 100 100 100 100 100 92 80 32 24 20 21 19
100 100 79 80 100 100 100 100 99 86 82 99 100 96 48 19 40 41 95 100 100 100 100 100 90 90 66 39 29 24 20 20
100 98 92 82 100 100 100 94 100 100 81 100 100 100 56 34 36 60 100 100 100 100 100 96 87 78 53 31 34 23 21 19
100 100 100 96 74 100 100 100 100 97 97 55 84 100 59 46 48 100 100 100 97 100 100 100 86 58 47 30 28 28 23 18
100 100 100 100 74 99 89 81 100 100 90 97 90 71 95 100 100 100 100 100 100 100 100 99 88 59 42 37 33 24 20 27
100 100 100 100 79 70 100 100 100 100 98 99 76 89 100 100 100 100 100 100 100 100 100 92 71 46 34 30 23 24 28 27
77 100 97 94 91 100 100 74 93 94 78 92 100 96 100 100 100 100 100 100 100 85 73 58 43 30 32 26 27 28 24 23
83 85 77 83 94 100 81 95 85 76 100 100 100 100 100 100 100 100 100 100 100 86 67 49 35 36 51 41 36 24 28 24
90 100 96 77 87 100 87 100 97 100 100 99 100 100 100 93 100 100 100 100 100 100 93 58 30 53 42 44 31 22 29 35
84 100 100 100 100 91 100 100 96 100 100 100 100 100 100 100 100 100 100 100 100 98 74 45 42 37 39 37 27 36 40 42
90 100 100 100 100 100 100 100 98 100 100 100 100 100 100 100 100 100 93 99 85 96 69 45 36 34 27 38 51 55 57 44
100 100 100 100 100 100 100 100 100 100 100 100 100 100 96 88 100 100 100 100 100 63 73 42 40 52 87 79 61 63 59 62
100 100 100 100 100 99 88 100 100 100 100 100 100 100 100 100 98 100 98 100 100 68 57 90 92 97 82 68 72 70 68 81
100 100 100 100 100 100 100 98 97 100 100 100 100 100 100 100 94 98 100 100 92 87 89 95 92 85 79 77 78 95 100 100
74 100 100 97 91 88 100 100 100 100 100 100 100 100 100 100 100 100 92 96 89 89 89 88 89 84 100 99 100 100 100 100
22 87 100 100 100 100 99 100 100 100 100 100 100 100 100 100 100 100 100 95 94 100 96 96 100 100 100 100 100 100 100 100
24 22 77 100 100 100 100 90 100 100 100 100 97 94 98 92 69 65 65 63 80 97 100 100 100 100 100 100 100 100 100 100
33 25 24 34 100 100 100 100 100 100 100 100 100 100 100 100 100 100 100 100 100 100 100 100 100 100 100 100 100 100 100 100
40 37 34 24 48 100 100 100 100 100 90 100 100 100 100 100 100 100 100 100 97 96 100 100 100 100 100 100 100 100 100 100

GFSFLT2_250_rhum_063.txt.gz
RH
10 9 12 16 34 100 99 100 97 97 99 100 100 99 100 100 99 95 98 83 51 69 53 47 46 45 84 100 80 100 100 92
12 15 42 50 61 100 100 100 95 100 100 100 97 100 100 100 100 76 65 100 87 55 48 39 49 100 83 89 100 100 100 85
19 36 39 82 80 100 100 100 100 100 100 100 100 100 98 100 86 52 57 81 67 63 87 93 100 100 100 100 94 89 100 65
21 52 52 94 68 100 100 100 100 100 100 100 100 100 100 100 90 50 82 67 62 73 96 86 100 99 96 100 100 100 95 46
30 69 75 99 63 95 100 96 99 100 100 100 100 100 96 78 97 51 63 72 67 100 100 100 95 100 100 100 100 100 93 85
38 90 99 100 81 84 100 100 100 99 99 100 100 99 98 94 100 70 59 42 61 82 99 78 87 100 100 100 100 100 99 88
46 100 100 100 99 100 100 100 100 100 100 100 100 100 92 91 76 56 40 42 50 93 100 94 100 100 100 100 98 100 95 79
50 85 98 100 100 100 100 100 100 100 100 100 100 98 100 88 58 43 77 70 68 56 93 100 94 100 100 100 100 91 73 88
35 59 65 99 100 100 100 100 100 100 100 100 100 100 88 81 59 55 65 90 83 48 100 90 100 100 100 100 100 95 90 50
19 39 54 100 79 100 100 100 100 100 100 100 100 100 93 85 86 63 72 68 56 82 100 97 100 100 100 100 100 84 86 72
16 28 67 49 81 92 100 100 100 100 100 100 100 100 91 100 94 83 90 67 87 100 100 78 100 100 100 100 100 91 83 65
18 25 50 57 60 86 100 100 100 100 100 100 100 100 100 100 93 90 95 79 87 100 93 100 100 100 94 100 100 100 91 51
19 18 64 70 63 69 60 70 84 81 76 79 83 100 90 79 93 100 99 86 80 92 100 88 74 98 100 100 100 100 91 40
24 24 80 76 55 69 78 55 53 48 50 75 53 69 67 80 100 100 97 99 100 100 100 100 100 100 100 98 86 76 44 28
25 30 100 91 62 52 56 52 58 63 70 85 79 65 85 100 100 100 82 80 71 85 100 100 100 98 100 83 66 47 29 32
25 22 70 100 74 52 47 48 98 71 55 91 77 98 100 100 100 90 69 54 79 100 100 100 98 90 68 61 46 39 37 68
26 24 24 92 100 70 54 46 66 100 78 60 100 100 100 100 100 100 88 94 100 100 100 100 100 92 86 88 94 84 74 99
22 24 27 23 94 100 79 64 48 79 100 100 77 100 100 100 100 100 98 95 90 76 68 77 90 87 97 100 100 100 100 100
30 20 28 33 27 94 100 97 70 65 50 52 65 85 99 100 100 100 96 67 58 79 100 100 99 100 70 91 100 100 100 100
61 30 21 24 29 29 85 100 100 93 96 97 76 100 100 89 100 100 100 100 100 100 100 100 100 100 100 100 100 100 100 56